Location: Winthrop
(48.4780°N, 120.1850°W)
Time: 02:21:28
(UTC-07:00)

ESTCUBE 1 - Visible Passes

Search period start: 31 May 2023 00:00
Search period end: 10 June 2023 00:00
Orbit: 640 x 654 km, 97.9° (Epoch: 31 May)

Date Brightness Start Highest point End Pass type
(mag) Time Alt. Az. Time Alt. Az. Time Alt. Az.
31 May ? 22:02:11 12° SE 22:05:54 37° ENE 22:10:00 10° N visible
31 May ? 23:39:55 15° SW 23:42:39 26° W 23:46:25 10° NW visible
01 Jun ? 22:28:09 17° SSE 22:31:31 65° ENE 22:35:57 10° N visible
02 Jun ? 00:05:59 10° SW 00:08:38 15° W 00:11:18 10° NW visible
02 Jun ? 22:54:08 19° S 22:57:14 72° WSW 23:01:43 10° NNW visible
03 Jun ? 21:42:55 10° ESE 21:46:34 25° ENE 21:50:13 10° N visible
03 Jun ? 23:20:07 18° SSW 23:23:03 40° W 23:27:16 10° NNW visible
04 Jun ? 22:08:21 12° SE 22:12:07 42° ENE 22:16:20 10° N visible
04 Jun ? 23:46:05 13° SW 23:48:57 23° W 23:52:32 10° NW visible
05 Jun ? 22:34:20 17° SSE 22:37:45 75° ENE 22:42:13 10° N visible
06 Jun ? 00:12:47 10° WSW 00:14:59 13° W 00:17:10 10° WNW visible
06 Jun ? 23:00:18 18° S 23:03:30 62° W 23:07:56 10° NNW visible
07 Jun ? 21:48:56 10° SE 21:52:44 29° ENE 21:56:34 10° N visible
07 Jun ? 23:26:16 16° SSW 23:29:19 35° W 23:33:25 10° NNW visible
08 Jun ? 22:14:30 13° SE 22:18:18 48° ENE 22:22:37 10° N visible
08 Jun ? 23:52:14 11° SW 23:55:14 20° W 23:58:34 10° NW visible
09 Jun ? 22:40:28 16° SSE 22:43:57 86° ENE 22:48:27 10° NNW visible
